Location: G�migny
(47.9646°N, 1.6950°E)
Time: 07:01:12
(UTC+00:00)

Cosmos 2100 Rocket - Pass Details

Date: 23 October 2019
Orbit: 955 x 1002 km, 82.9° (Epoch: 14 November)

Event Time Altitude Azimuth Distance (km) Brightness Sun altitude
Rises 18:38:24 0° 350° (N) 3,665 7.2 -18.7°
Reaches altitude 10° 18:40:55 10° 351° (N) 2,709 6.5 -19.1°
Maximum altitude 18:47:08 89° 80° (E) 965 3.9 -20.1°
Drops below altitude 10° 18:53:16 10° 173° (S) 2,677 6.2 -21.2°
Sets 18:55:45 0° 173° (S) 3,619 6.8 -21.6°
